Location: Milano
(45.4670°N, 9.2000°E)
Time: 07:55:36
(UTC+02:00)

X-37B - Pass Details

Date: 06 August 2021
Orbit: 381 x 393 km, 45.0° (Epoch: 29 August)

Event Time Altitude Azimuth Distance (km) Brightness Sun altitude
Exits shadow 03:56:52 38° 123° (ESE) 601 1.5 -19.4°
Drops below altitude 10° 03:59:13 10° 87° (E) 1,397 3.9 -19.2°
Sets 04:01:20 0° 81° (E) 2,252 5.2 -18.9°
